User: anonymous   Login
Location: Herm
(49.4830°N, 2.4500°W)
Time: 05:39:03
(UTC+01:00)
Language:

VELOX 1 - Orbit

View from above orbital plane
View from above orbital plane
View from above satellite
View from above satellite

Ground track
Ground track

The orbit data is extracted from the following two-line orbital elements,

1 40057U 14034E   21290.84721339  .00000857  00000-0  12551-3 0  9996
2 40057  98.3427  89.2388 0011338  32.5027 327.6879 14.78315812393629
Epoch (UTC): 17 October 2021 20:19:59
Eccentricity: 0.0011338
inclination: 98.3427°
perigee height: 626 km
apogee height: 642 km
right ascension of ascending node: 89.2388°
argument of perigee: 32.5027°
revolutions per day: 14.78315812
mean anomaly at epoch: 327.6879°
orbit number at epoch: 39362

The dashed part of the orbit path shows where the satellite is in the earth's shadow,  

DLR